CamptonHillsWeather.com

Find the Weather for any City, State  
or Zipcode, or Country:

Campton Hills, IL Weather
Local Radar

Local Radar

Graphs, Details
Graphs and Gauges
Detailed Weather
Detailed Reports
Ajax Version (old)
Central Kane Co Summary
Davis Current Weather Graphs
Davis 24 Hour Weather History

CW3778 Data

Weather Underground
Maps
Temperature
Heat Index
Windchill
Humidity
Radar
Dew Point
Wind
Visibility
Visible Satellite
Satellite
Fronts
Snow Depth
Jet Stream
Flight Rules
Forecast Maps
Temperature Forecast
Maximum Temperature Forecast
Minimum Temperature Forecast
Dewpoint Forecast
Prevalent Weather
12Hr Probability of Precip.
Sky Cover
Health Maps
UV Forecast
Air Quality
Peak Air Quality Index
Weather Station
Davis Instruments Vantage Pro
Current Conditions [Select Refresh to Update]

Updated: 8:46am on 8/22/14

(location)
Currently:
75.2F

Clear
Mostly Cloudy

High: 75.2 F< 
(8:46am
Low: 71.9 F 
(6:25am)
Wind: NW 1 mph
Calm
Gust: 2 mph
Today's High Wind: 6 mph (7:52am)
Humidity: 99%
Pressure: 29.91 in  (Steady
Pressure Rate: 0.008 in/hr
Dew Point: 74.9F
Wind Chill: 75.2 F
Heat Index (feels like): 82.2 F
Comfort Level: Comfortable
Temperature Rate:  1.74F/hr
 
5 Day Forecast
 
Fri Sat Sun Mon Tue
Clear Clear Clear Clear Clear
Chance T-storms Chance T-storms Partly Cloudy Chance T-storms Chance T-storms
90 84 90 93 91
70 68 72 72 70

Records and Normals
 
Temperature Forecast Normal Record
High 90 82 90
(2007)
Low 70 61 48
(2004)
 
Links
 
 
Weather Advisories
Warning Date: 8:22 am CDT on August 22, 2014
Warning Description: Flood Advisory
Full Advisory Text...
Weather Map

Web Cam

Almanac
 
Sunrise:  
6:11am
Moonrise: 
3:30am

Moon Phase:
13%

Sunset: 
7:45pm
Moonset:  
5:53pm
 Star Chart...
Rainfall Totals
Hourly Rain 0.00 in
Daily Rain: 0.44 in
Monthly Rain: 5.56 in
Yearly Rain: 26.90 in
Normal Rain, month to date: 3.71 in
Normal Rain, year to date: 20.47 in
Link to Village of Campton Hills Map

Link to Counties of Illinois Map

Local Weather Exchange Network
Station ID City 
(Click for Map Location)
Neighborhood 
(Click for History)
Last Update (Date & Time) Temperature
 ()
Dew
Point ()
Humidity 
(%)
Wind 
(mph)
from the Wind Gust 
(mph) 
Pressure(in) Hourly
Rain(in)
MD5528 Wasco APRSWXNET Campton Hills IL US 08/22 08:19:00 74.0 72.0 92 0 SW 0 29.87 0.00
KILSTCHA10 St. Charles Hunt Club 08/22 08:43:49 77.4 77.0 98 0 NE 0 29.54 0.00
KILCAMPT3 Campton Hills Campton Hills 08/22 08:44:03 75.3 75.0 100 0 West 0 29.91 0.00
KILGENEV6 Geneva Dover Ridge 08/22 08:44:03 74.6 74.0 97 5 SW 5 29.88 0.00
KILSTCHA8 St. Charles Ronzheimer Ave. & S. Tyler Rd. 08/22 08:44:00 74.9 74.0 97 2 SW 5 29.87 0.00
KILGENEV3 Geneva Mill Creek (NE) 08/22 08:44:00 75.0 74.0 97 6 SW 10 29.89 0.00
KILSTCHA1 St Charles CamptonHillsWeather.com Central Kane County 08/22 08:43:59 75.1 75.0 99 1 NW 2 29.91 0.00
KILELGIN13 Elgin Creek Side 08/22 08:44:00 76.5 74.0 92 0 SW 1 29.03 0.00
KILSOUTH5 South Elgin Concord Park 08/22 08:30:49 75.7 75.0 99 3 South 0 29.70 0.00
KILGENEV2 Geneva Mill Creek 08/22 08:39:59 75.3 74.0 94 1 SSW 8 29.85 0.00
KILELBUR7 Elburn Cheval-De-Selle 08/22 08:41:51 74.6 72.0 93 2 SE 0 29.85 0.00
KILBATAV1 Batavia Tri-Cities on the Fox River 08/22 08:42:40 74.6 72.0 93 0 SW 4 29.92 0.00
KILELBUR5 Elburn Prairie Highlands 08/22 08:40:15 75.1 74.0 98 1 SW 6 29.89 0.01
KILBATAV3 Batavia West Batavia 08/22 08:40:56 74.6 74.0 98 0 ENE 1 29.87 0.00
KILELBUR6 Elburn Columbine Square 08/22 08:42:44 75.4 75.0 97 0 WSW 5 29.86 0.00
KILBATAV5 Batavia Fermi National Accelerator Laboratory 08/22 08:42:48 75.9 74.0 93 1 South 9 29.86 0.00
KILWESTC5 West Chicago THEBROWNHOUSE.ORG 08/22 08:43:58 77.2 74.0 89 0 North 0 29.92 0.00
KILWESTC8 West Chicago Ingalton Hills Estates 08/22 08:43:56 75.0 75.0 99 3 South 3 29.95 0.00
KILNORTH11 North Aurora Waterford Oaks 08/22 08:43:56 76.2 74.0 94 7 West 10 29.90 0.00
KILELGIN10 Elgin Wing Park 08/22 08:37:58 74.5 73.0 96 0 West 0 29.12 0.00
MUP188 Elburn MesoWest ELBRN1 IL US UPR 08/22 04:45:00 76.0 0.0 0 0 North 0 0.00 0.00
KILELGIN14 Elgin Elgin, IL 08/22 08:43:56 75.0 73.0 94 0 SSE 1 29.88 0.00
KILCAROL5 Carol Stream Stonehenge Court 08/22 08:40:04 75.0 64.0 69 0 South 2 29.87 0.00
KILGILBE2 Gilberts Gilberts, IL 08/22 08:43:59 76.3 76.0 99 4 SW 4 30.13 0.00
KILWINFI3 Winfield Fredericksburg Farm 08/22 08:43:57 75.7 74.0 94 3 SE 5 29.81 0.00
KILWINFI2 Winfield Winfield Heights (SarahNet) 08/22 08:36:45 74.4 73.0 95 0 South 3 29.89 0.00
KILSLEEP3 Sleepy Hollow SLEEPY HOLLOW 08/22 08:44:02 79.6 76.0 90 0 SSE 0 29.46 0.00
KILCAROL6 Carol Stream Merbach Ct 08/22 08:44:02 76.6 76.0 98 2 North 4 29.87 0.00
KILSLEEP2 Sleepy Hollow Sleepy Hollow Manor 08/22 08:38:10 76.8 73.0 88 0 SW 0 29.83 0.00
KILWARRE2 Warrenville meso_neigh30 08/22 08:43:43 75.2 74.0 97 0 South 1 29.88 0.00
KILHANOV2 Hanover Park meso_neigh31 08/22 08:43:24 76.3 76.0 99 1 ESE 2 29.90 0.07
KILWHEAT8 Wheaton Wheaton Sanitary District 08/22 08:31:53 75.0 74.0 98 0 SW 5 29.90 0.00
KILWARRE4 Warrenville Cerny Park 08/22 08:40:18 73.0 73.0 99 0 NE 1 30.09 0.00
KILWHEAT5 Wheaton N9ABF - West Wheaton 08/22 08:30:14 74.9 73.0 92 1 South 0 29.91 0.00
KILSCHAU9 Schaumburg Schaumburg West 08/22 08:44:01 76.1 76.0 99 4 SW 8 29.91 0.00
KILEASTD2 East Dundee Rock Road Industrial Park 08/22 08:43:15 74.8 71.0 88 3 SW 6 29.92 0.00
KILCARPE6 Carpentersville Carpentersville 08/22 08:43:47 76.8 75.0 93 1 WNW 1 29.06 0.00
KILWHEAT11 Wheaton Wheaton SW Orth Ct 08/22 08:44:02 75.2 73.0 93 0 NNE 0 30.04 0.00
KILNAPER19 Naperville Brookdale Lakes 08/22 08:44:03 76.8 75.0 93 0 East 4 29.90 0.00
KDPA Chicago DuPage Official Station 08/22 08:39:00 77.0 73.0 88 6 SSW --- 29.93 ---
Full Advisory Text
Warning Description: Flood Advisory

Warning Date: 8:22 am CDT on August 22, 2014

WarningSum:


Warning Message:The National Weather Service in Chicago has issued a
* Flood Advisory for
  the Fox River at Montgomery.
* Until Saturday evening.
* At  745 am Friday the stage was 12.4 feet.
* Action stage is 12.5 feet.
* Flood stage is 13.0 feet.
* Forecast...the river will rise to near 12.6 feet by this afternoon.
Lat...Lon 4195 8838 4173 8838 4163 8860 4154 8860
      4169 8826 4194 8827             
        

Ambient Weather and Weather Underground
 Never base important decisions on this or any weather information obtained from the Internet
Updated Automatically by Ambient Weather's Virtual Weather Station  V13.01